Chippewa, MI

4:25 PM EST on November 17, 2019 (GMT -0500)
Chippewa County International

Weather History for KCIU - August, 2019

Change the Weather History Date:

Sunday, August 18, 2019

  Actual Average Record
Temperature  
Mean Temperature 68 °F -  
Max Temperature 81 °F 74 °F 84 °F (1993)
Min Temperature 57 °F 51 °F 35 °F (1981)
Cooling Degree Days 3    
Growing Degree Days 18 (Base 50)    
Moisture  
Dew Point 61 °F    
Average Humidity 91    
Maximum Humidity 100    
Minimum Humidity 60    
Precipitation  
Precipitation 0.00 in - - ()
Sea Level Pressure  
Sea Level Pressure 29.82 in    
Wind  
Wind Speed 6 mph (SSE)    
Max Wind Speed 22 mph    
Max Gust Speed 28 mph    
Visibility 5 miles    
Events Fog , Rain    
Averages and records for this station are not official NWS values.
T = Trace of Precipitation, MM = Missing Value Source: NWS Daily Summary

Daily Weather History Graph

Daily Weather History Graph

Search for Another Location

Airport or City:

Astronomy

Aug. 18, 2019 Rise Set
Actual Time 6:40 AM EDT 8:42 PM EDT
Civil Twilight 6:07 AM EDT 9:14 PM EDT
Nautical Twilight 5:27 AM EDT 9:54 PM EDT
Astronomical Twilight 4:43 AM EDT 10:38 PM EDT
Moon 10:27 PM EDT (8/18) 9:31 AM EDT (8/18)
Length of Visible Light 15h 06m
Length of Day
14h 01m
Waning Gibbous, 91% of the Moon is Illuminated
Aug 18
Waning Gibbous
Aug 23
Last Quarter
Aug 30
New
Sep 5
First Quarter
Sep 14
Full

Hourly Weather History & Observations

Time (EDT) Temp. Dew Point Humidity Pressure Visibility Wind Dir Wind Speed Gust Speed Precip Events Conditions
12:56 AM 63.0 °F 62.1 °F 97% 29.90 in 10.0 mi SW 4.6 mph - N/A   Clear
1:20 AM 62.6 °F 62.6 °F 100% 29.91 in 1.5 mi SSW 3.5 mph - N/A   Clear
1:27 AM 62.6 °F 62.6 °F 100% 29.91 in 0.8 mi SSW 3.5 mph - N/A   Clear
1:48 AM 60.8 °F 60.8 °F 100% 29.91 in 0.5 mi Calm Calm - N/A Fog Fog
1:52 AM 60.8 °F 60.8 °F 100% 29.91 in 1.2 mi South 3.5 mph - N/A   Scattered Clouds
1:54 AM 60.8 °F 60.8 °F 100% 29.91 in 3.0 mi South 3.5 mph - N/A   Scattered Clouds
1:56 AM 61.0 °F 60.1 °F 97% 29.90 in 2.5 mi South 3.5 mph - N/A   Mostly Cloudy
1:59 AM 60.8 °F 60.8 °F 100% 29.91 in 3.0 mi South 3.5 mph - N/A   Scattered Clouds
2:03 AM 62.6 °F 60.8 °F 94% 29.91 in 1.8 mi South 3.5 mph - N/A   Scattered Clouds
2:11 AM 62.6 °F 62.6 °F 100% 29.91 in 2.5 mi South 3.5 mph - N/A   Scattered Clouds
2:18 AM 62.6 °F 62.6 °F 100% 29.91 in 6.0 mi Calm Calm - N/A   Partly Cloudy
2:56 AM 60.1 °F 59.0 °F 96% 29.89 in 8.0 mi South 4.6 mph - N/A   Clear
2:59 AM 59.0 °F 59.0 °F 100% 29.90 in 1.8 mi South 3.5 mph - N/A   Clear
3:07 AM 59.0 °F 57.2 °F 94% 29.90 in 4.0 mi SSE 4.6 mph - N/A   Clear
3:56 AM 57.9 °F 57.0 °F 97% 29.87 in 10.0 mi East 4.6 mph - N/A   Clear
4:24 AM 57.2 °F 57.2 °F 100% 29.87 in 0.8 mi SE 4.6 mph - N/A   Clear
4:32 AM 57.2 °F 57.2 °F 100% 29.87 in 0.5 mi ESE 4.6 mph - N/A Fog Fog
4:37 AM 57.2 °F 57.2 °F 100% 29.87 in 1.0 mi SE 4.6 mph - N/A   Clear
4:41 AM 57.2 °F 57.2 °F 100% 29.87 in 0.5 mi SE 5.8 mph - N/A Fog Fog
4:49 AM 59.0 °F 59.0 °F 100% 29.86 in 0.2 mi SE 5.8 mph - N/A Fog Fog
4:56 AM 60.1 °F 60.1 °F 100% 29.85 in 0.5 mi SE 6.9 mph - N/A Fog Fog
5:10 AM 60.8 °F 60.8 °F 100% 29.86 in 0.2 mi SE 6.9 mph - N/A Fog Fog
5:30 AM 60.8 °F 60.8 °F 100% 29.86 in 0.8 mi SE 5.8 mph - N/A   Overcast
5:50 AM 60.8 °F 60.8 °F 100% 29.86 in 1.2 mi SE 5.8 mph - N/A   Overcast
5:56 AM 60.1 °F 60.1 °F 100% 29.85 in 2.0 mi SE 5.8 mph - N/A   Overcast
6:05 AM 59.0 °F 59.0 °F 100% 29.87 in 7.0 mi SE 4.6 mph - N/A   Overcast
6:10 AM 57.2 °F 57.2 °F 100% 29.87 in 1.5 mi SSE 5.8 mph - N/A   Overcast
6:13 AM 57.2 °F 57.2 °F 100% 29.87 in 0.8 mi SSE 6.9 mph - N/A   Overcast
6:22 AM 59.0 °F 59.0 °F 100% 29.87 in 1.2 mi SSE 4.6 mph - N/A   Mostly Cloudy
6:25 AM 59.0 °F 57.2 °F 94% 29.87 in 0.8 mi SSE 5.8 mph - N/A   Mist
6:28 AM 59.0 °F 57.2 °F 94% 29.86 in 0.2 mi SE 5.8 mph - N/A Fog Fog
6:40 AM 59.0 °F 59.0 °F 100% 29.86 in 0.5 mi SE 5.8 mph - N/A Fog Fog
6:56 AM 57.0 °F 57.0 °F 100% 29.86 in 0.2 mi SSE 4.6 mph - N/A Fog Fog
7:04 AM 59.0 °F 59.0 °F 100% 29.86 in 0.8 mi SE 6.9 mph - N/A   Clear
7:06 AM 59.0 °F 59.0 °F 100% 29.86 in 1.5 mi SE 6.9 mph - N/A   Clear
7:13 AM 60.8 °F 60.8 °F 100% 29.86 in 10.0 mi SE 6.9 mph - N/A   Clear
7:56 AM 63.0 °F 63.0 °F 100% 29.83 in 10.0 mi SE 8.1 mph - N/A   Clear
8:56 AM 66.0 °F 63.0 °F 90% 29.80 in 10.0 mi SE 10.4 mph - N/A   Clear
9:56 AM 71.1 °F 64.9 °F 81% 29.83 in 10.0 mi SE 16.1 mph - N/A   Clear
10:56 AM 75.9 °F 64.9 °F 69% 29.79 in 10.0 mi SE 13.8 mph 20.7 mph N/A   Scattered Clouds
11:56 AM 78.1 °F 64.0 °F 62% 29.76 in 10.0 mi SE 18.4 mph 24.2 mph N/A   Partly Cloudy
12:56 PM 78.1 °F 64.0 °F 62% 29.75 in 10.0 mi SSE 21.9 mph 27.6 mph N/A   Clear
1:56 PM 79.0 °F 64.0 °F 60% 29.73 in 10.0 mi SSE 17.3 mph - N/A   Clear
2:56 PM 78.1 °F 66.0 °F 66% 29.67 in 10.0 mi SE 17.3 mph 26.5 mph 0.00 in Rain Light Rain
3:56 PM 78.1 °F 66.9 °F 68% 29.64 in 10.0 mi SSE 13.8 mph - 0.00 in   Mostly Cloudy
4:56 PM 77.0 °F 64.0 °F 64% 29.63 in 10.0 mi SW 16.1 mph 23.0 mph N/A   Mostly Cloudy
5:56 PM 75.0 °F 64.9 °F 71% 29.65 in 10.0 mi SW 12.7 mph 25.3 mph N/A   Overcast
6:43 PM 71.6 °F 64.4 °F 78% 29.67 in 10.0 mi SSW 8.1 mph 18.4 mph 0.00 in   Overcast
6:56 PM 71.1 °F 64.9 °F 81% 29.67 in 8.0 mi SW 10.4 mph 18.4 mph 0.00 in Rain Light Rain
7:45 PM 68.0 °F 64.4 °F 88% 29.69 in 10.0 mi West 15.0 mph 21.9 mph 0.00 in   Overcast
7:56 PM 68.0 °F 64.9 °F 90% 29.69 in 10.0 mi West 9.2 mph 21.9 mph 0.00 in   Overcast
8:10 PM 69.8 °F 64.4 °F 83% 29.70 in 10.0 mi West 10.4 mph - N/A   Overcast
8:34 PM 69.8 °F 64.4 °F 83% 29.70 in 10.0 mi West 12.7 mph - N/A   Overcast
8:56 PM 69.1 °F 64.0 °F 84% 29.69 in 10.0 mi West 8.1 mph - N/A   Overcast
9:31 PM 68.0 °F 62.6 °F 83% 29.73 in 10.0 mi WNW 13.8 mph 26.5 mph 0.00 in Rain Light Rain
9:56 PM 66.9 °F 61.0 °F 81% 29.74 in 10.0 mi WNW 18.4 mph 27.6 mph 0.00 in   Overcast
10:22 PM 64.4 °F 57.2 °F 77% 29.76 in 10.0 mi WNW 13.8 mph 24.2 mph N/A   Overcast
10:56 PM 63.0 °F 57.9 °F 84% 29.78 in 10.0 mi WNW 11.5 mph - N/A   Scattered Clouds
11:56 PM 62.1 °F 55.9 °F 80% 29.81 in 10.0 mi WNW 11.5 mph 19.6 mph N/A   Clear